Location: Stanford
(52.2833°N, 2.4333°W)
Time: 03:19:28
(UTC+00:00)

CZ-4C R/B - Pass Details

Date: 22 January 2021
Orbit: 407 x 488 km, 97.7° (Epoch: 24 February)

Event Time Altitude Azimuth Distance (km) Brightness Sun altitude
Rises 17:17:27 0° 17° (NNE) 2,353 6.2 -6.0°
Reaches altitude 10° 17:19:28 10° 21° (NNE) 1,486 5.1 -6.3°
Maximum altitude 17:22:35 58° 102° (ESE) 485 2.8 -6.8°
Drops below altitude 10° 17:25:42 10° 183° (S) 1,482 5.9 -7.2°
Sets 17:27:43 0° 187° (S) 2,347 7.0 -7.5°
